This is the latest recevied weather packets stored in our database for station/object K6TTR. If no packets are shown the sender has not sent any weather packets the latest 10 day(s).
| Time | Temp. | Humidity | Pressure | Rain* | Wind** | Luminosity | Snow |
|---|---|---|---|---|---|---|---|
| 1777481013 | 9.44° C | 73% | 1021.6 hPa | 0 mm | - | 134 W/m² | - |
| 1777480718 | 9.44° C | 72% | 1021.6 hPa | 0 mm | - | 83 W/m² | - |
| 1777480423 | 8.89° C | 76% | 1021.7 hPa | 0 mm | - | 598 W/m² | - |
| 1777480128 | 8.33° C | 78% | 1021.8 hPa | 0 mm | - | 77 W/m² | - |
| 1777479812 | 8.33° C | 81% | 1021 hPa | 0 mm | - | 54 W/m² | - |
| 1777479517 | 7.78° C | 82% | 1021 hPa | 0 mm | - | 366 W/m² | - |
| 1777479223 | 7.78° C | 84% | 1021.1 hPa | 0 mm | - | 160 W/m² | - |
| 1777478926 | 7.78° C | 88% | 1021.1 hPa | 0 mm | - | 100 W/m² | - |
| 1777478604 | 7.22° C | 91% | 1021.2 hPa | 0 mm | - | 67 W/m² | - |
| 1777478316 | 6.67° C | 92% | 1021.2 hPa | 0 mm | - | 77 W/m² | - |
| 1777478022 | 6.67° C | 92% | 1021.4 hPa | 0 mm | - | 483 W/m² | - |
| 1777477726 | 6.67° C | 92% | 1021.4 hPa | 0 mm | - | 452 W/m² | - |
| 1777477413 | 6.11° C | 92% | 1021.4 hPa | 0 mm | - | 181 W/m² | - |
| 1777477118 | 5.56° C | 92% | 1021.4 hPa | 0 mm | - | 156 W/m² | - |
| 1777476823 | 5.56° C | 92% | 1021.4 hPa | 0 mm | - | 121 W/m² | - |
| 1777476528 | 5° C | 92% | 1021.4 hPa | 0 mm | - | 306 W/m² | - |
| 1777476212 | 4.44° C | 92% | 1021.4 hPa | 0 mm | - | 364 W/m² | - |
| 1777475917 | 3.89° C | 92% | 1021.6 hPa | 0 mm | - | 88 W/m² | - |
| 1777475619 | 3.89° C | 92% | 1021.6 hPa | 0 mm | - | 44 W/m² | - |
| 1777475323 | 3.89° C | 92% | 1021.7 hPa | 0 mm | - | 49 W/m² | - |
| 1777475029 | 3.33° C | 92% | 1021.7 hPa | 0 mm | - | 60 W/m² | - |
| 1777474715 | 3.33° C | 92% | 1021.8 hPa | 0 mm | - | 86 W/m² | - |
| 1777474420 | 2.78° C | 92% | 1021.8 hPa | 0 mm | - | 77 W/m² | - |
| 1777474125 | 2.22° C | 92% | 1021.8 hPa | 0 mm | - | 86 W/m² | - |
| 1777473829 | 2.22° C | 92% | 1021.9 hPa | 0 mm | - | 81 W/m² | - |
* Rain latest hour (hover to see other rain measurements)
** Current wind speed in m/s (hover to see current wind gust speed)